Tracking 35237 objects as of 6-Sep-2026
HD Live streaming from Space Station
objects crossing your sky now

MARS 3 DEB


MARS 3 DEB is no longer on orbit


NORAD ID: 5263
Int'l Code: 1971-049D
Launch date: May 28, 1971
Source: Commonwealth of Independent States (former USSR) (CIS)
Launch site: TYURATAM MISSILE AND SPACE COMPLEX (TTMTR)
Decay date: 1971-06-01

Note: This is SATELLITE DEBRIS
Your satellite tracking list
Your tracking list is empty




NASA's NSSDC Master Catalog

Two Line Element Set (TLE):
1 05263U 71049  D 71150.90108235  .03297470 +00000-0 +00000-0 0  9991
2 05263 051.2941 113.2946 0040940 013.0012 347.2012 16.39881325000375
Source of the keplerian elements: AFSPC